| time (UTC) | temp F | wind direction | speed MPH | gust MPH | rain 1hr in | rain 24hr in | rain mn in | humidity % | barometer mb |
| 20260504184701 | 65 | 139 | 13.0 | 18.0 | 0.00 | 0.00 | 0.00 | 48 | 1008.9 |
| 20260504183659 | 66 | 208 | 3.0 | 16.0 | 0.00 | 0.00 | 0.00 | 47 | 1009.0 |
| 20260504182654 | 66 | 187 | 3.0 | 13.0 | 0.00 | 0.00 | 0.00 | 47 | 1009.1 |
| 20260504181649 | 66 | 233 | 10.0 | 18.0 | 0.00 | 0.00 | 0.00 | 44 | 1009.2 |
| 20260504180645 | 68 | 175 | 6.0 | 7.0 | 0.00 | 0.00 | 0.00 | 43 | 1009.4 |
| 20260504175640 | 64 | 206 | 13.0 | 16.0 | 0.00 | 0.00 | 0.00 | 46 | 1009.3 |
| 20260504174635 | 63 | 152 | 9.0 | 15.0 | 0.00 | 0.00 | 0.00 | 46 | 1009.4 |
| 20260504173634 | 65 | 198 | 5.0 | 17.0 | 0.00 | 0.00 | 0.00 | 51 | 1009.7 |
| 20260504172634 | 64 | 203 | 7.0 | 12.0 | 0.00 | 0.00 | 0.00 | 45 | 1009.8 |
| 20260504171633 | 64 | 305 | 6.0 | 13.0 | 0.00 | 0.00 | 0.00 | 48 | 1009.6 |
| 20260504170632 | 64 | 195 | 3.0 | 16.0 | 0.00 | 0.00 | 0.00 | 52 | 1009.9 |
| 20260504150612 | 58 | 199 | 9.0 | 19.0 | 0.00 | 0.00 | 0.00 | 50 | 1011.1 |
| 20260504140603 | 54 | 230 | 10.0 | 17.0 | 0.00 | 0.00 | 0.00 | 51 | 1011.3 |
| 20260504130550 | 53 | 184 | 10.0 | 12.0 | 0.00 | 0.00 | 0.00 | 52 | 1011.7 |
| 20260504110531 | 46 | 192 | 5.0 | 12.0 | 0.00 | 0.00 | 0.00 | 59 | 1011.8 |
| 20260504100516 | 44 | 202 | 2.0 | 4.0 | 0.00 | 0.00 | 0.00 | 62 | 1011.8 |
| 20260504081454 | 43 | 88 | 2.0 | 3.0 | 0.00 | 0.00 | 0.00 | 64 | 1011.9 |
| 20260504080452 | 43 | 88 | 3.0 | 3.0 | 0.00 | 0.00 | 0.00 | 64 | 1012.0 |
| 20260504050421 | 45 | 143 | 3.0 | 7.0 | 0.00 | 0.00 | 0.00 | 60 | 1012.1 |
| 20260504045419 | 45 | 217 | 2.0 | 5.0 | 0.00 | 0.00 | 0.00 | 60 | 1012.1 |
| 20260504044419 | 45 | 128 | 2.0 | 3.0 | 0.00 | 0.00 | 0.00 | 59 | 1012.4 |
| 20260504043419 | 45 | 238 | 2.0 | 4.0 | 0.00 | 0.00 | 0.00 | 58 | 1012.3 |
| 20260504042419 | 45 | 213 | 2.0 | 5.0 | 0.00 | 0.00 | 0.00 | 59 | 1012.1 |
| 20260504041418 | 45 | 173 | 1.0 | 2.0 | 0.00 | 0.00 | 0.00 | 59 | 1012.1 |
| 20260504040412 | 45 | 202 | 6.0 | 7.0 | 0.00 | 0.00 | 0.00 | 57 | 1012.3 |
| 20260504035411 | 45 | 193 | 0.0 | 4.0 | 0.00 | 0.00 | 0.00 | 57 | 1012.3 |
| 20260504034411 | 46 | 146 | 2.0 | 4.0 | 0.00 | 0.00 | 0.00 | 57 | 1012.0 |
| 20260504033406 | 46 | 111 | 2.0 | 6.0 | 0.00 | 0.00 | 0.00 | 56 | 1012.1 |
| 20260504032405 | 46 | 188 | 2.0 | 4.0 | 0.00 | 0.00 | 0.00 | 56 | 1012.3 |
| 20260504031405 | 46 | 150 | 2.0 | 3.0 | 0.00 | 0.00 | 0.00 | 56 | 1012.1 |
| 20260504030404 | 46 | 13 | 1.0 | 3.0 | 0.00 | 0.00 | 0.00 | 56 | 1012.4 |
| 20260504025403 | 45 | 113 | 2.0 | 3.0 | 0.00 | 0.00 | 0.00 | 56 | 1012.1 |
| 20260504024402 | 46 | 121 | 2.0 | 3.0 | 0.00 | 0.00 | 0.00 | 56 | 1012.3 |
| 20260504023401 | 46 | 150 | 0.0 | 2.0 | 0.00 | 0.00 | 0.00 | 55 | 1012.4 |
| 20260504022400 | 46 | 248 | 2.0 | 2.0 | 0.00 | 0.00 | 0.00 | 54 | 1012.3 |
| 20260504021359 | 46 | 58 | 1.0 | 3.0 | 0.00 | 0.00 | 0.00 | 55 | 1012.1 |
| 20260504020359 | 45 | 107 | 2.0 | 3.0 | 0.00 | 0.00 | 0.00 | 55 | 1012.4 |
| 20260504015357 | 46 | 80 | 2.0 | 3.0 | 0.00 | 0.00 | 0.00 | 55 | 1012.1 |
| 20260504014355 | 46 | 119 | 2.0 | 3.0 | 0.00 | 0.00 | 0.00 | 54 | 1012.5 |
| 20260504013350 | 47 | 134 | 2.0 | 3.0 | 0.00 | 0.00 | 0.00 | 53 | 1012.1 |
| 20260504012350 | 47 | 134 | 2.0 | 3.0 | 0.00 | 0.00 | 0.00 | 52 | 1012.0 |
| 20260504011350 | 47 | 38 | 0.0 | 3.0 | 0.00 | 0.00 | 0.00 | 53 | 1011.9 |
| 20260504010348 | 47 | 180 | 2.0 | 3.0 | 0.00 | 0.00 | 0.00 | 53 | 1011.8 |
| 20260504005347 | 47 | 115 | 1.0 | 2.0 | 0.00 | 0.00 | 0.00 | 53 | 1011.6 |
| 20260504004342 | 48 | 165 | 0.0 | 3.0 | 0.00 | 0.00 | 0.00 | 50 | 1011.7 |
| 20260504003341 | 48 | 111 | 2.0 | 2.0 | 0.00 | 0.00 | 0.00 | 49 | 1011.6 |
| 20260504002340 | 48 | 113 | 1.0 | 3.0 | 0.00 | 0.00 | 0.00 | 50 | 1011.5 |
| 20260504001340 | 49 | 254 | 1.0 | 4.0 | 0.00 | 0.00 | 0.00 | 51 | 1011.4 |
| 20260504000340 | 50 | 334 | 0.0 | 2.0 | 0.00 | 0.00 | 0.00 | 49 | 1011.4 |
| 20260503235335 | 50 | 156 | 2.0 | 6.0 | 0.00 | 0.00 | 0.00 | 46 | 1011.2 |
| 20260503234330 | 51 | 217 | 2.0 | 6.0 | 0.00 | 0.00 | 0.00 | 46 | 1011.3 |
| 20260503233329 | 52 | 256 | 7.0 | 8.0 | 0.00 | 0.00 | 0.00 | 44 | 1011.2 |
| 20260503232329 | 52 | 217 | 8.0 | 10.0 | 0.00 | 0.00 | 0.00 | 43 | 1011.1 |
| 20260503231329 | 52 | 233 | 2.0 | 4.0 | 0.00 | 0.00 | 0.00 | 45 | 1011.1 |
| 20260503230328 | 53 | 235 | 2.0 | 6.0 | 0.00 | 0.00 | 0.00 | 44 | 1011.3 |
| 20260503225328 | 54 | 347 | 4.0 | 7.0 | 0.00 | 0.00 | 0.00 | 42 | 1011.0 |
| 20260503224327 | 53 | 60 | 4.0 | 5.0 | 0.00 | 0.00 | 0.00 | 45 | 1011.0 |
| 20260503223322 | 52 | 248 | 3.0 | 4.0 | 0.00 | 0.00 | 0.00 | 47 | 1011.1 |
| 20260503222322 | 53 | 331 | 2.0 | 5.0 | 0.00 | 0.00 | 0.00 | 47 | 1011.1 |
| 20260503221319 | 53 | 19 | 4.0 | 4.0 | 0.00 | 0.00 | 0.00 | 45 | 1011.2 |
| 20260503220317 | 54 | 273 | 5.0 | 7.0 | 0.00 | 0.00 | 0.00 | 44 | 1011.0 |
| 20260503215317 | 53 | 292 | 4.0 | 4.0 | 0.00 | 0.00 | 0.00 | 45 | 1011.2 |
| 20260503214312 | 52 | 257 | 5.0 | 7.0 | 0.00 | 0.00 | 0.00 | 45 | 1011.2 |
| 20260503213307 | 52 | 355 | 1.0 | 6.0 | 0.00 | 0.00 | 0.00 | 46 | 1011.1 |
| 20260503212301 | 53 | 0 | 2.0 | 5.0 | 0.00 | 0.00 | 0.00 | 46 | 1011.1 |
| 20260503211301 | 53 | 279 | 4.0 | 9.0 | 0.00 | 0.00 | 0.00 | 46 | 1011.0 |
| 20260503210259 | 53 | 241 | 2.0 | 8.0 | 0.00 | 0.00 | 0.00 | 46 | 1011.0 |
| 20260503205256 | 52 | 311 | 6.0 | 8.0 | 0.00 | 0.00 | 0.00 | 45 | 1010.8 |
| 20260503204256 | 53 | 231 | 2.0 | 13.0 | 0.00 | 0.00 | 0.00 | 46 | 1010.9 |
| 20260503203251 | 52 | 279 | 7.0 | 9.0 | 0.00 | 0.00 | 0.00 | 45 | 1011.1 |
| 20260503202246 | 52 | 312 | 2.0 | 7.0 | 0.00 | 0.00 | 0.00 | 44 | 1011.1 |
| 20260503201247 | 52 | 322 | 0.0 | 11.0 | 0.00 | 0.00 | 0.00 | 44 | 1011.1 |
| 20260503200245 | 53 | 15 | 2.0 | 5.0 | 0.00 | 0.00 | 0.00 | 45 | 1011.0 |
| 20260503195245 | 53 | 138 | 2.0 | 5.0 | 0.00 | 0.00 | 0.00 | 44 | 1011.5 |
| 20260503194244 | 53 | 329 | 6.0 | 14.0 | 0.00 | 0.00 | 0.00 | 42 | 1011.3 |
| 20260503193243 | 53 | 338 | 0.0 | 12.0 | 0.00 | 0.00 | 0.00 | 44 | 1011.5 |
| 20260503192239 | 52 | 345 | 4.0 | 12.0 | 0.00 | 0.00 | 0.00 | 42 | 1011.7 |
| 20260503191234 | 55 | 345 | 2.0 | 5.0 | 0.00 | 0.00 | 0.00 | 43 | 1011.4 |
| 20260503190233 | 55 | 234 | 2.0 | 13.0 | 0.00 | 0.00 | 0.00 | 46 | 1011.7 |